Time,TemperatureF,DewpointF,PressureIn,WindDirection,WindDirectionDegrees,WindSpeedMPH,WindSpeedGustMPH,Humidity,HourlyPrecipIn,Conditions,Clouds,dailyrainin,SoftwareType,DateUTC
2014-02-23 00:09:00,40.3,20.1,29.88,NE,45,0.0,-999.0,44,-99.99,,,0.00,Acu-Link.com,2014-02-23 08:09:00,
2014-02-23 00:24:00,40.5,20.3,29.87,NE,45,0.0,-999.0,44,-99.99,,,0.00,Acu-Link.com,2014-02-23 08:24:00,
2014-02-23 00:39:00,40.1,20.0,29.87,NE,45,0.0,-999.0,44,-99.99,,,0.00,Acu-Link.com,2014-02-23 08:39:00,
2014-02-23 00:54:00,40.1,19.4,29.88,NE,45,0.0,-999.0,43,-99.99,,,0.00,Acu-Link.com,2014-02-23 08:54:00,
2014-02-23 01:10:00,40.6,19.9,29.87,NE,45,0.0,-999.0,43,-99.99,,,0.00,Acu-Link.com,2014-02-23 09:10:00,
2014-02-23 01:25:00,39.6,20.0,29.87,NE,45,0.0,-999.0,45,-99.99,,,0.00,Acu-Link.com,2014-02-23 09:25:00,
2014-02-23 01:40:00,39.6,19.5,29.88,NE,45,0.0,-999.0,44,-99.99,,,0.00,Acu-Link.com,2014-02-23 09:40:00,
2014-02-23 01:55:00,40.1,20.0,29.87,NE,45,0.0,-999.0,44,-99.99,,,0.00,Acu-Link.com,2014-02-23 09:55:00,
2014-02-23 02:11:00,39.7,19.1,29.87,NE,45,0.0,-999.0,43,-99.99,,,0.00,Acu-Link.com,2014-02-23 10:11:00,
2014-02-23 02:26:00,39.9,19.8,29.86,NE,45,0.0,-999.0,44,-99.99,,,0.00,Acu-Link.com,2014-02-23 10:26:00,
2014-02-23 02:41:00,39.2,20.2,29.86,NE,45,0.0,-999.0,46,-99.99,,,0.00,Acu-Link.com,2014-02-23 10:41:00,
2014-02-23 02:56:00,38.7,19.7,29.86,NE,45,0.0,-999.0,46,-99.99,,,0.00,Acu-Link.com,2014-02-23 10:56:00,
2014-02-23 03:11:00,39.0,21.0,29.86,NE,45,0.0,-999.0,48,-99.99,,,0.00,Acu-Link.com,2014-02-23 11:11:00,
2014-02-23 03:27:00,38.3,20.4,29.86,NE,45,0.0,-999.0,48,-99.99,,,0.00,Acu-Link.com,2014-02-23 11:27:00,
2014-02-23 03:42:00,38.1,19.2,29.86,NE,45,0.0,-999.0,46,-99.99,,,0.00,Acu-Link.com,2014-02-23 11:42:00,
2014-02-23 03:57:00,37.9,18.0,29.87,NE,45,0.0,-999.0,44,-99.99,,,0.00,Acu-Link.com,2014-02-23 11:57:00,
2014-02-23 04:12:00,38.3,18.3,29.86,NE,45,0.0,-999.0,44,-99.99,,,0.00,Acu-Link.com,2014-02-23 12:12:00,
2014-02-23 04:27:00,39.2,16.9,29.87,NE,45,0.0,-999.0,40,-99.99,,,0.00,Acu-Link.com,2014-02-23 12:27:00,
2014-02-23 04:43:00,38.5,18.5,29.87,NE,45,0.0,-999.0,44,-99.99,,,0.00,Acu-Link.com,2014-02-23 12:43:00,
2014-02-23 04:58:00,38.1,18.7,29.87,NE,45,0.0,-999.0,45,-99.99,,,0.00,Acu-Link.com,2014-02-23 12:58:00,
2014-02-23 05:13:00,38.3,19.4,29.87,NE,45,0.0,-999.0,46,-99.99,,,0.00,Acu-Link.com,2014-02-23 13:13:00,
2014-02-23 05:28:00,37.9,18.5,29.87,NE,45,0.0,-999.0,45,-99.99,,,0.00,Acu-Link.com,2014-02-23 13:28:00,
2014-02-23 05:43:00,38.3,18.8,29.88,NE,45,0.0,-999.0,45,-99.99,,,0.00,Acu-Link.com,2014-02-23 13:43:00,
2014-02-23 05:59:00,38.8,18.8,29.88,NE,45,0.0,-999.0,44,-99.99,,,0.00,Acu-Link.com,2014-02-23 13:59:00,
2014-02-23 06:14:00,38.1,17.6,29.88,NE,45,0.0,-999.0,43,-99.99,,,0.00,Acu-Link.com,2014-02-23 14:14:00,
2014-02-23 06:29:00,38.8,17.7,29.88,NE,45,0.0,-999.0,42,-99.99,,,0.00,Acu-Link.com,2014-02-23 14:29:00,
2014-02-23 06:45:00,38.8,18.2,29.89,NE,45,0.0,-999.0,43,-99.99,,,0.00,Acu-Link.com,2014-02-23 14:45:00,
2014-02-23 07:00:00,39.0,17.9,29.90,NE,45,0.0,-999.0,42,-99.99,,,0.00,Acu-Link.com,2014-02-23 15:00:00,
2014-02-23 07:15:00,39.7,19.1,29.90,NE,45,0.0,-999.0,43,-99.99,,,0.00,Acu-Link.com,2014-02-23 15:15:00,
2014-02-23 07:31:00,39.0,19.0,29.91,NE,45,0.0,-999.0,44,-99.99,,,0.00,Acu-Link.com,2014-02-23 15:31:00,
2014-02-23 07:46:00,39.2,21.2,29.91,NE,45,0.0,-999.0,48,-99.99,,,0.00,Acu-Link.com,2014-02-23 15:46:00,
2014-02-23 08:01:00,39.7,22.1,29.91,NE,45,0.0,-999.0,49,-99.99,,,0.00,Acu-Link.com,2014-02-23 16:01:00,
2014-02-23 08:16:00,46.8,26.6,29.92,NE,45,0.0,-999.0,45,-99.99,,,0.00,Acu-Link.com,2014-02-23 16:16:00,
2014-02-23 08:32:00,49.5,27.9,29.92,NE,45,0.0,-999.0,43,-99.99,,,0.00,Acu-Link.com,2014-02-23 16:32:00,
2014-02-23 08:47:00,50.7,27.3,29.92,NE,45,0.0,-999.0,40,-99.99,,,0.00,Acu-Link.com,2014-02-23 16:47:00,
2014-02-23 09:02:00,53.1,23.3,29.92,NE,45,0.0,-999.0,31,-99.99,,,0.00,Acu-Link.com,2014-02-23 17:02:00,
2014-02-23 09:18:00,52.9,24.6,29.92,NE,45,0.0,-999.0,33,-99.99,,,0.00,Acu-Link.com,2014-02-23 17:18:00,
2014-02-23 09:33:00,53.6,27.3,29.93,ENE,67,0.0,-999.0,36,-99.99,,,0.00,Acu-Link.com,2014-02-23 17:33:00,
2014-02-23 09:48:00,54.1,26.4,29.93,NE,45,0.0,-999.0,34,-99.99,,,0.00,Acu-Link.com,2014-02-23 17:48:00,
2014-02-23 10:04:00,54.3,25.1,29.93,NE,45,1.7,-999.0,32,-99.99,,,0.00,Acu-Link.com,2014-02-23 18:04:00,
2014-02-23 10:19:00,54.7,24.7,29.93,WSW,247,0.0,-999.0,31,-99.99,,,0.00,Acu-Link.com,2014-02-23 18:19:00,
2014-02-23 10:34:00,55.2,25.1,29.94,ENE,67,1.1,-999.0,31,-99.99,,,0.00,Acu-Link.com,2014-02-23 18:34:00,
2014-02-23 10:49:00,56.5,26.2,29.93,ENE,67,0.0,-999.0,31,-99.99,,,0.00,Acu-Link.com,2014-02-23 18:49:00,
2014-02-23 11:04:00,56.8,25.7,29.93,NE,45,1.7,-999.0,30,-99.99,,,0.00,Acu-Link.com,2014-02-23 19:04:00,
2014-02-23 11:20:00,57.6,26.4,29.92,NNW,337,1.1,-999.0,30,-99.99,,,0.00,Acu-Link.com,2014-02-23 19:20:00,
2014-02-23 11:35:00,57.6,26.4,29.92,ENE,67,2.7,-999.0,30,-99.99,,,0.00,Acu-Link.com,2014-02-23 19:35:00,
2014-02-23 11:50:00,58.1,26.0,29.92,North,0,0.0,-999.0,29,-99.99,,,0.00,Acu-Link.com,2014-02-23 19:50:00,
2014-02-23 12:05:00,58.1,26.8,29.91,ENE,67,2.7,-999.0,30,-99.99,,,0.00,Acu-Link.com,2014-02-23 20:05:00,
2014-02-23 12:20:00,58.1,26.8,29.91,North,0,2.2,-999.0,30,-99.99,,,0.00,Acu-Link.com,2014-02-23 20:20:00,
2014-02-23 12:36:00,58.1,26.0,29.90,WNW,292,1.7,-999.0,29,-99.99,,,0.00,Acu-Link.com,2014-02-23 20:36:00,
2014-02-23 12:51:00,58.5,26.4,29.89,NNW,337,1.7,-999.0,29,-99.99,,,0.00,Acu-Link.com,2014-02-23 20:51:00,
2014-02-23 13:06:00,58.5,26.4,29.89,WNW,292,3.2,-999.0,29,-99.99,,,0.00,Acu-Link.com,2014-02-23 21:06:00,
2014-02-23 13:22:00,58.3,26.2,29.88,NNW,337,1.7,-999.0,29,-99.99,,,0.00,Acu-Link.com,2014-02-23 21:22:00,
2014-02-23 13:37:00,58.1,25.2,29.89,NNE,22,1.7,-999.0,28,-99.99,,,0.00,Acu-Link.com,2014-02-23 21:37:00,
2014-02-23 13:52:00,58.6,25.6,29.88,WNW,292,0.0,-999.0,28,-99.99,,,0.00,Acu-Link.com,2014-02-23 21:52:00,
2014-02-23 14:07:00,58.8,25.8,29.88,NNW,337,2.2,-999.0,28,-99.99,,,0.00,Acu-Link.com,2014-02-23 22:07:00,
2014-02-23 14:22:00,58.3,25.3,29.88,East,90,3.2,-999.0,28,-99.99,,,0.00,Acu-Link.com,2014-02-23 22:22:00,
2014-02-23 14:38:00,57.4,24.6,29.88,NNE,22,3.7,-999.0,28,-99.99,,,0.00,Acu-Link.com,2014-02-23 22:38:00,
2014-02-23 14:53:00,57.6,23.9,29.88,East,90,2.7,-999.0,27,-99.99,,,0.00,Acu-Link.com,2014-02-23 22:53:00,
2014-02-23 15:08:00,57.0,25.1,29.88,NNE,22,1.1,-999.0,29,-99.99,,,0.00,Acu-Link.com,2014-02-23 23:08:00,
2014-02-23 15:23:00,56.3,25.3,29.88,ESE,112,0.0,-999.0,30,-99.99,,,0.00,Acu-Link.com,2014-02-23 23:23:00,
2014-02-23 15:38:00,55.8,24.8,29.88,East,90,2.7,-999.0,30,-99.99,,,0.00,Acu-Link.com,2014-02-23 23:38:00,
2014-02-23 15:54:00,54.9,24.1,29.88,ENE,67,0.0,-999.0,30,-99.99,,,0.00,Acu-Link.com,2014-02-23 23:54:00,
2014-02-23 16:09:00,54.3,24.3,29.88,NE,45,3.7,-999.0,31,-99.99,,,0.00,Acu-Link.com,2014-02-24 00:09:00,
2014-02-23 16:24:00,53.8,23.9,29.89,East,90,1.7,-999.0,31,-99.99,,,0.00,Acu-Link.com,2014-02-24 00:24:00,
2014-02-23 16:39:00,52.7,23.7,29.89,ESE,112,0.0,-999.0,32,-99.99,,,0.00,Acu-Link.com,2014-02-24 00:39:00,
2014-02-23 16:54:00,52.0,23.8,29.89,SE,135,0.0,-999.0,33,-99.99,,,0.00,Acu-Link.com,2014-02-24 00:54:00,
2014-02-23 17:10:00,51.1,23.7,29.89,NE,45,0.0,-999.0,34,-99.99,,,0.00,Acu-Link.com,2014-02-24 01:10:00,
2014-02-23 17:25:00,50.2,23.6,29.90,NE,45,0.0,-999.0,35,-99.99,,,0.00,Acu-Link.com,2014-02-24 01:25:00,
2014-02-23 17:40:00,49.5,23.0,29.91,NE,45,0.0,-999.0,35,-99.99,,,0.00,Acu-Link.com,2014-02-24 01:40:00,
2014-02-23 17:55:00,48.2,23.2,29.91,NE,45,0.0,-999.0,37,-99.99,,,0.00,Acu-Link.com,2014-02-24 01:55:00,
2014-02-23 18:11:00,47.1,22.8,29.90,NE,45,0.0,-999.0,38,-99.99,,,0.00,Acu-Link.com,2014-02-24 02:11:00,
2014-02-23 18:26:00,45.9,23.0,29.90,NE,45,0.0,-999.0,40,-99.99,,,0.00,Acu-Link.com,2014-02-24 02:26:00,
2014-02-23 18:42:00,45.1,22.2,29.90,NE,45,0.0,-999.0,40,-99.99,,,0.00,Acu-Link.com,2014-02-24 02:42:00,
2014-02-23 18:57:00,45.0,22.7,29.91,NE,45,0.0,-999.0,41,-99.99,,,0.00,Acu-Link.com,2014-02-24 02:57:00,
2014-02-23 19:13:00,43.5,22.5,29.91,NE,45,0.0,-999.0,43,-99.99,,,0.00,Acu-Link.com,2014-02-24 03:13:00,
2014-02-23 19:28:00,43.2,22.2,29.91,NE,45,0.0,-999.0,43,-99.99,,,0.00,Acu-Link.com,2014-02-24 03:28:00,
2014-02-23 19:43:00,43.0,22.6,29.91,NE,45,0.0,-999.0,44,-99.99,,,0.00,Acu-Link.com,2014-02-24 03:43:00,
2014-02-23 19:58:00,41.9,22.1,29.91,NE,45,0.0,-999.0,45,-99.99,,,0.00,Acu-Link.com,2014-02-24 03:58:00,
2014-02-23 20:13:00,42.8,21.9,29.92,NE,45,0.0,-999.0,43,-99.99,,,0.00,Acu-Link.com,2014-02-24 04:13:00,
2014-02-23 20:29:00,41.4,21.7,29.92,NE,45,0.0,-999.0,45,-99.99,,,0.00,Acu-Link.com,2014-02-24 04:29:00,
2014-02-23 20:44:00,42.1,22.3,29.92,NE,45,0.0,-999.0,45,-99.99,,,0.00,Acu-Link.com,2014-02-24 04:44:00,
2014-02-23 20:59:00,41.2,22.0,29.93,NE,45,0.0,-999.0,46,-99.99,,,0.00,Acu-Link.com,2014-02-24 04:59:00,
2014-02-23 21:14:00,40.8,21.6,29.93,NE,45,0.0,-999.0,46,-99.99,,,0.00,Acu-Link.com,2014-02-24 05:14:00,
2014-02-23 21:29:00,41.2,22.5,29.94,NE,45,0.0,-999.0,47,-99.99,,,0.00,Acu-Link.com,2014-02-24 05:29:00,
2014-02-23 21:45:00,40.6,22.5,29.93,NE,45,0.0,-999.0,48,-99.99,,,0.00,Acu-Link.com,2014-02-24 05:45:00,
2014-02-23 22:00:00,41.7,22.5,29.93,NE,45,0.0,-999.0,46,-99.99,,,0.00,Acu-Link.com,2014-02-24 06:00:00,
2014-02-23 22:15:00,40.5,22.4,29.93,NE,45,0.0,-999.0,48,-99.99,,,0.00,Acu-Link.com,2014-02-24 06:15:00,
2014-02-23 22:30:00,40.5,21.9,29.93,NE,45,0.0,-999.0,47,-99.99,,,0.00,Acu-Link.com,2014-02-24 06:30:00,
2014-02-23 22:46:00,40.8,22.6,29.93,NE,45,0.0,-999.0,48,-99.99,,,0.00,Acu-Link.com,2014-02-24 06:46:00,
2014-02-23 23:01:00,41.4,22.7,29.93,NE,45,0.0,-999.0,47,-99.99,,,0.00,Acu-Link.com,2014-02-24 07:01:00,
2014-02-23 23:16:00,41.2,22.5,29.93,NE,45,0.0,-999.0,47,-99.99,,,0.00,Acu-Link.com,2014-02-24 07:16:00,
2014-02-23 23:31:00,42.6,22.2,29.93,NE,45,0.0,-999.0,44,-99.99,,,0.00,Acu-Link.com,2014-02-24 07:31:00,
2014-02-23 23:46:00,41.0,22.3,29.93,NE,45,0.0,-999.0,47,-99.99,,,0.00,Acu-Link.com,2014-02-24 07:46:00,